Location: Unspecified
(41.1637°N, 24.2901°E)
Time: 21:38:28
(UTC+02:00)

ISS - Pass Details

Date: 19 September 2019
Orbit: 411 x 421 km, 51.6° (Epoch: 19 September)

Event Time Altitude Azimuth Distance (km) Brightness Sun altitude
Rises 18:59:17 0° 198° (SSW) 2,328 0.2 -7.1°
Reaches altitude 10° 19:01:45 10° 180° (S) 1,471 -1.1 -7.5°
Maximum altitude 19:04:10 19° 132° (SE) 1,049 -2.2 -8.0°
Enters shadow 19:06:20 11° 88° (E) 1,407 -1.7 -8.4°
